sat.trackr.live / text

‹ back to catalog

TRANSPORTER-16 OBJECT AA

NORAD 68440 · 2026-067AA

PAYLOAD ACTIVE UNKNOWN

§ Identity

Operator
Country
TBD
Launch date
2026-03-30
Launch site
AFWTR
Launch vehicle
Mass (kg)
RCS (m²)

External: N2YO · Heavens-Above · Gunter

§ Orbital elements

Epoch: 2026-09-20T03:50:33.631008Z

Period
94.50 min
Inclination
97.4592°
Eccentricity
0.0004952
Mean motion
15.23752477 rev/d
Perigee alt
491.1 km
Apogee alt
497.9 km
Semi-major
6,872.7 km
B*
6.6167e-4
RAAN
220.8636°
Arg perigee
89.3132°
Mean anomaly
270.8672°
Rev number
2,639

§ Raw data

TRANSPORTER-16 OBJECT AA1 68440U 26067AA  26263.16011147  .00015863  00000+0  66167-3 0  99942 68440  97.4592 220.8636 0004952  89.3132 270.8672 15.23752477 26398

JSON: /api/v1/satellites/68440 · /tle

For live sub-satellite position, see the globe view (requires WebGL).

§ Visibility from observer

Set your observer location to see the next 7 days of passes ≥ 10°. The values pass through the URL so the page stays shareable.

No JS? Fill the form by hand. The geolocation button needs JavaScript.